DHELI LFLI-LSGG

Flight info

Callsign DHELI
Flight time 0h -23m
Altitude 3000
Route LSGG
Aircraft UH1/L-SDFGRY/C

Departure

Time 2026-05-04 18:55
Airport Annemasse Airfield (LFLI)

Arrival

Time 2026-05-04 18:32
Airport Geneva International Airport (LSGG)
Time Latitude Longitude Altitude Speed Heading
2026-05-04 18:31 46.19455 6.26649 1594 ft 0 kts 231°
2026-05-04 18:44 46.19447 6.26644 1598 ft 3 kts 191°
2026-05-04 18:45 46.19428 6.26635 1605 ft 7 kts 210°
2026-05-04 18:45 46.19406 6.26615 1638 ft 12 kts 227°
2026-05-04 18:45 46.19428 6.26584 1641 ft 6 kts 307°
2026-05-04 18:45 46.19500 6.26515 1623 ft 13 kts 317°
2026-05-04 18:46 46.19528 6.26443 1631 ft 15 kts 222°
2026-05-04 18:46 46.19389 6.26345 1652 ft 25 kts 136°
2026-05-04 18:46 46.19202 6.26744 1765 ft 70 kts 126°
2026-05-04 18:46 46.18832 6.26683 1995 ft 63 kts 269°
2026-05-04 18:47 46.19236 6.26395 1884 ft 91 kts 351°
2026-05-04 18:47 46.19624 6.26738 1984 ft 61 kts 114°
2026-05-04 18:47 46.19355 6.26625 1762 ft 64 kts 302°
2026-05-04 18:47 46.19521 6.26349 1791 ft 16 kts 266°
2026-05-04 18:48 46.19551 6.26355 1777 ft 3 kts 199°
2026-05-04 18:48 46.19561 6.26385 1744 ft 6 kts 200°
2026-05-04 18:48 46.19559 6.26417 1739 ft 2 kts 236°
2026-05-04 18:48 46.19548 6.26383 1617 ft 4 kts 235°
2026-05-04 18:49 46.19558 6.26455 1762 ft 2 kts 237°
2026-05-04 18:49 46.19559 6.26440 1583 ft 0 kts 250°
2026-05-04 18:50 46.19554 6.26438 1614 ft 7 kts 242°
2026-05-04 18:50 46.19481 6.26386 1621 ft 22 kts 206°
2026-05-04 18:51 46.19405 6.26305 1637 ft 9 kts 286°
2026-05-04 18:51 46.19490 6.26343 1662 ft 24 kts 355°
2026-05-04 18:51 46.19557 6.26394 1661 ft 4 kts 158°
2026-05-04 18:51 46.19535 6.26362 1666 ft 18 kts 188°
2026-05-04 18:52 46.19435 6.26323 1767 ft 42 kts 162°
2026-05-04 18:52 46.19190 6.26777 1804 ft 61 kts 116°
2026-05-04 18:52 46.18990 6.27141 2114 ft 39 kts 134°
2026-05-04 18:52 46.18826 6.27718 1996 ft 72 kts 101°
2026-05-04 18:53 46.18554 6.27956 2126 ft 57 kts 242°
2026-05-04 18:53 46.18779 6.27608 2132 ft 50 kts 313°
2026-05-04 18:53 46.19048 6.27207 2035 ft 71 kts 297°
2026-05-04 18:53 46.19325 6.26677 1974 ft 58 kts 291°
2026-05-04 18:54 46.19481 6.26276 1965 ft 30 kts 277°
2026-05-04 18:54 46.19523 6.26175 1893 ft 5 kts 278°
2026-05-04 18:54 46.19585 6.25988 1989 ft 57 kts 284°
2026-05-04 18:54 46.19925 6.25481 2098 ft 54 kts 314°
2026-05-04 18:55 46.20109 6.25124 2351 ft 47 kts 292°
2026-05-04 18:55 46.20630 6.24889 2741 ft 41 kts 319°
2026-05-04 18:55 46.21092 6.24752 2508 ft 88 kts 346°
2026-05-04 18:56 46.21609 6.24673 2581 ft 69 kts
2026-05-04 18:56 46.22069 6.25042 2358 ft 87 kts 346°
2026-05-04 18:56 46.22618 6.24637 2243 ft 89 kts 318°
2026-05-04 18:56 46.22928 6.23873 2233 ft 84 kts 281°
2026-05-04 18:57 46.23071 6.23150 2272 ft 75 kts 279°
2026-05-04 18:57 46.22977 6.22363 2152 ft 81 kts 236°
2026-05-04 18:57 46.22742 6.21793 2322 ft 54 kts 231°
2026-05-04 18:57 46.22656 6.21426 2436 ft 22 kts 237°
2026-05-04 18:58 46.22630 6.21144 2347 ft 46 kts 241°
2026-05-04 18:58 46.22513 6.20614 2384 ft 57 kts 241°
2026-05-04 18:58 46.22427 6.20074 2506 ft 50 kts 251°
2026-05-04 18:58 46.22412 6.19584 2512 ft 49 kts 250°
2026-05-04 18:59 46.22314 6.19038 2381 ft 68 kts 239°
2026-05-04 18:59 46.22046 6.18398 2246 ft 71 kts 230°
2026-05-04 18:59 46.21941 6.17785 2256 ft 64 kts 258°
2026-05-04 18:59 46.22157 6.17135 2102 ft 76 kts 296°
2026-05-04 19:00 46.22448 6.16632 2182 ft 52 kts 285°
2026-05-04 19:00 46.22543 6.16515 2213 ft 9 kts 249°
2026-05-04 19:00 46.22433 6.16661 2473 ft 34 kts 226°
2026-05-04 19:00 46.22299 6.16870 2468 ft 54 kts 210°
2026-05-04 19:01 46.22192 6.17092 2608 ft 8 kts 220°
2026-05-04 19:01 46.22182 6.17085 2815 ft 8 kts 238°
2026-05-04 19:01 46.22213 6.16821 2889 ft 56 kts 297°
2026-05-04 19:01 46.22538 6.16169 2628 ft 86 kts 328°
2026-05-04 19:02 46.23039 6.15853 2601 ft 87 kts 345°
2026-05-04 19:02 46.23606 6.15530 2509 ft 83 kts 323°
2026-05-04 19:02 46.23862 6.14830 2369 ft 85 kts 255°
2026-05-04 19:02 46.23430 6.14363 2259 ft 83 kts 185°
2026-05-04 19:03 46.22977 6.14789 2035 ft 92 kts 97°
2026-05-04 19:03 46.23321 6.15486 1608 ft 87 kts
2026-05-04 19:03 46.23752 6.15642 1774 ft 44 kts
2026-05-04 19:03 46.24079 6.15547 1763 ft 59 kts 343°
2026-05-04 19:04 46.24516 6.15600 1610 ft 74 kts 46°
2026-05-04 19:04 46.24307 6.16225 1566 ft 68 kts 143°
2026-05-04 19:04 46.23922 6.16465 1822 ft 52 kts 152°
2026-05-04 19:04 46.23762 6.16630 2152 ft 19 kts 129°
2026-05-04 19:05 46.23946 6.16845 2212 ft 18 kts 82°
2026-05-04 19:05 46.24124 6.16949 2343 ft 24 kts 104°
2026-05-04 19:05 46.24236 6.17031 2574 ft 7 kts 127°
2026-05-04 19:05 46.24253 6.17078 2719 ft 5 kts 136°
2026-05-04 19:06 46.24265 6.17123 2840 ft 5 kts 137°
2026-05-04 19:06 46.24281 6.17245 2893 ft 39 kts 131°
2026-05-04 19:06 46.24522 6.17837 2703 ft 90 kts 21°
2026-05-04 19:06 46.25111 6.17989 2772 ft 73 kts 12°
2026-05-04 19:07 46.25465 6.18455 2610 ft 76 kts 31°
2026-05-04 19:07 46.25987 6.18711 2286 ft 78 kts
2026-05-04 19:07 46.26332 6.18731 2406 ft 48 kts 353°
2026-05-04 19:08 46.26364 6.18735 2411 ft 46 kts 351°
2026-05-04 19:08 46.26682 6.18677 2363 ft 56 kts 334°
2026-05-04 19:08 46.27083 6.18468 2393 ft 65 kts 329°
2026-05-04 19:09 46.27347 6.17744 2157 ft 80 kts 285°
2026-05-04 19:09 46.27179 6.17081 2137 ft 75 kts 223°
2026-05-04 19:09 46.26838 6.16656 2159 ft 64 kts 218°
2026-05-04 19:09 46.26706 6.15962 2088 ft 76 kts 263°
2026-05-04 19:10 46.26766 6.15183 2166 ft 78 kts 279°
2026-05-04 19:10 46.26908 6.14457 2326 ft 72 kts 275°
2026-05-04 19:10 46.26886 6.13696 2374 ft 82 kts 250°
2026-05-04 19:10 46.26604 6.12863 2038 ft 100 kts 232°
2026-05-04 19:11 46.26255 6.12213 2081 ft 70 kts 216°
2026-05-04 19:11 46.26047 6.11944 2071 ft 48 kts 212°
2026-05-04 19:11 46.25915 6.11787 1960 ft 21 kts 219°
2026-05-04 19:11 46.25568 6.11415 1891 ft 71 kts 214°
2026-05-04 19:12 46.25342 6.11121 1917 ft 55 kts 212°
2026-05-04 19:12 46.24978 6.10878 1907 ft 4 kts 216°
2026-05-04 19:12 46.24982 6.10874 1422 ft 14 kts 237°
2026-05-04 19:13 46.25000 6.11031 2097 ft 15 kts 237°
2026-05-04 19:13 46.24950 6.11007 2213 ft 29 kts 224°
2026-05-04 19:13 46.24686 6.10771 1933 ft 62 kts 205°
2026-05-04 19:13 46.24371 6.10569 2075 ft 36 kts 207°
2026-05-04 19:14 46.24199 6.10484 1870 ft 15 kts 211°
2026-05-04 19:14 46.24034 6.10458 1774 ft 28 kts 209°
2026-05-04 19:14 46.23889 6.10367 1535 ft 15 kts 215°
2026-05-04 19:14 46.23855 6.10347 1510 ft 8 kts 230°
2026-05-04 19:15 46.23842 6.10335 1435 ft 1 kts 233°
2026-05-04 19:15 46.23835 6.10327 1405 ft 1 kts 230°
2026-05-04 19:15 46.23833 6.10326 1389 ft 0 kts 229°
2026-05-04 19:15 46.23832 6.10325 1388 ft 0 kts 227°
2026-05-04 19:16 46.23832 6.10323 1385 ft 0 kts 225°